Weather History for Houlton, ME

Change the Weather History Date:

Wednesday, July 24, 2013

  Actual Average Record
Temperature  
Mean Temperature 66 °F 66 °F  
Max Temperature 80 °F 78 °F 95 °F (1970)
Min Temperature 52 °F 54 °F 41 °F (2002)
Degree Days  
Heating Degree Days 0 2  
Month to date heating degree days 27 51  
Since 1 June heating degree days 224 232  
Since 1 July heating degree days 27 51  
Cooling Degree Days 1 3  
Month to date cooling degree days 106 70  
Year to date cooling degree days 146 109  
Since 1 June cooling degree days 142 105  
Growing Degree Days 17 (Base 50)    
Moisture  
Dew Point 61 °F    
Average Humidity 79    
Maximum Humidity 100    
Minimum Humidity 57    
Precipitation  
Precipitation 0.10 in 0.12 in 1.18 in (1976)
Month to date precipitation 4.47 2.82  
Year to date precipitation 20.78 21.10  
Snow  
Snow 0.00 in 0.00 in 0.00 in (2003)
Month to date snowfall 0.0 0.0  
Since 1 June snowfall 0.0 0.0  
Snow Depth 0.00 in    
Sea Level Pressure  
Sea Level Pressure 29.62 in    
Wind  
Wind Speed 6 mph (WSW)    
Max Wind Speed 18 mph    
Max Gust Speed 28 mph    
Visibility 8 miles    
Events Rain , Thunderstorm    
T = Trace of Precipitation, MM = Missing Value Source: NWS Daily Summary

Daily Weather History Graph

Daily Weather History Graph

Search for Another Location

Airport:

Trip Planner

Search our weather history database for the weather conditions in past years. The results will help you decide how hot, cold, wet, or windy it might be!

Date:

Astronomy

Jul. 24, 2013 Rise Set
Actual Time 5:04 AM EDT 8:10 PM EDT
Civil Twilight 4:28 AM EDT 8:46 PM EDT
Nautical Twilight 3:42 AM EDT 9:32 PM EDT
Astronomical Twilight 2:45 AM EDT 10:28 PM EDT
Moon 9:00 PM EDT (7/24) 7:30 AM EDT (7/24)
Length of Visible Light 16h 17m
Length of Day
15h 06m
Waning Gibbous, 95% of the Moon is Illuminated
Jul 24
Waning Gibbous
Jul 29
Last Quarter
Aug 6
New
Aug 14
First Quarter
Aug 20
Full

Hourly Weather History & Observations

Time (EDT) Temp. Dew Point Humidity Pressure Visibility Wind Dir Wind Speed Gust Speed Precip Events Conditions
12:02 AM 60.8 °F 60.8 °F 100% 29.53 in 2.5 mi Calm Calm - N/A   Overcast
12:19 AM 60.8 °F 60.8 °F 100% 29.53 in 3.0 mi Calm Calm - N/A   Overcast
12:34 AM 60.8 °F 60.8 °F 100% 29.53 in 2.5 mi Calm Calm - 0.01 in   Overcast
12:50 AM 60.8 °F 60.8 °F 100% 29.54 in 1.8 mi Calm Calm - 0.01 in   Overcast
12:51 AM 61.0 °F 61.0 °F 100% 29.54 in 1.8 mi Calm Calm - 0.01 in   Overcast
1:09 AM 60.8 °F 60.8 °F 100% 29.53 in 2.5 mi Calm Calm - N/A   Overcast
1:31 AM 60.8 °F 60.8 °F 100% 29.53 in 3.0 mi Calm Calm - 0.00 in   Overcast
1:38 AM 60.8 °F 60.8 °F 100% 29.53 in 2.5 mi West 3.5 mph - 0.00 in   Overcast
1:53 AM 61.0 °F 61.0 °F 100% 29.53 in 4.0 mi West 5.8 mph - 0.01 in   Overcast
2:16 AM 60.8 °F 60.8 °F 100% 29.53 in 3.0 mi West 4.6 mph - N/A   Overcast
2:53 AM 61.0 °F 60.1 °F 97% 29.55 in 4.0 mi West 4.6 mph - N/A   Overcast
3:09 AM 60.8 °F 60.8 °F 100% 29.54 in 10.0 mi Calm Calm - N/A   Overcast
3:16 AM 60.8 °F 60.8 °F 100% 29.54 in 10.0 mi Calm Calm - N/A   Overcast
3:38 AM 62.6 °F 60.8 °F 94% 29.53 in 10.0 mi Calm Calm - N/A   Overcast
3:53 AM 62.1 °F 60.1 °F 93% 29.53 in 10.0 mi Calm Calm - N/A   Overcast
4:53 AM 61.0 °F 60.1 °F 97% 29.55 in 10.0 mi South 3.5 mph - N/A   Overcast
5:53 AM 62.1 °F 61.0 °F 96% 29.55 in 10.0 mi Calm Calm - N/A   Overcast
6:12 AM 62.6 °F 60.8 °F 94% 29.55 in 7.0 mi Calm Calm - N/A   Overcast
6:53 AM 63.0 °F 61.0 °F 93% 29.55 in 4.0 mi South 4.6 mph - N/A   Overcast
7:53 AM 64.0 °F 62.1 °F 93% 29.57 in 6.0 mi South 6.9 mph - N/A   Overcast
8:53 AM 66.0 °F 64.0 °F 93% 29.59 in 10.0 mi SSW 6.9 mph - N/A   Overcast
9:53 AM 69.1 °F 64.9 °F 87% 29.60 in 10.0 mi SSW 5.8 mph - N/A   Overcast
10:05 AM 69.8 °F 66.2 °F 88% 29.59 in 10.0 mi SW 9.2 mph - N/A   Overcast
10:53 AM 73.0 °F 66.9 °F 81% 29.60 in 10.0 mi SSW 6.9 mph - N/A   Mostly Cloudy
11:53 AM 73.9 °F 68.0 °F 82% 29.62 in 10.0 mi SW 8.1 mph - N/A   Overcast
12:08 PM 75.2 °F 68.0 °F 78% 29.61 in 10.0 mi SW 6.9 mph - N/A   Overcast
12:24 PM 75.2 °F 68.0 °F 78% 29.61 in 10.0 mi SW 6.9 mph - N/A   Overcast
12:53 PM 79.0 °F 68.0 °F 69% 29.60 in 10.0 mi SW 10.4 mph 17.3 mph N/A   Scattered Clouds
1:53 PM 69.1 °F 64.9 °F 87% 29.63 in 2.0 mi WNW 5.8 mph 16.1 mph 0.05 in Rain Heavy Rain
2:06 PM 69.8 °F 66.2 °F 88% 29.64 in 10.0 mi Calm Calm - 0.00 in   Overcast
2:42 PM 69.8 °F 66.2 °F 88% 29.65 in 6.0 mi West 4.6 mph - 0.04 in Rain , Thunderstorm Light Rain
2:53 PM 71.1 °F 66.9 °F 87% 29.65 in 10.0 mi Variable 3.5 mph - 0.04 in   Mostly Cloudy
3:53 PM 75.9 °F 66.0 °F 71% 29.66 in 10.0 mi West 12.7 mph 19.6 mph N/A   Mostly Cloudy
4:53 PM 75.0 °F 61.0 °F 62% 29.68 in 10.0 mi West 9.2 mph - N/A   Scattered Clouds
5:53 PM 73.0 °F 57.9 °F 59% 29.73 in 10.0 mi WNW 10.4 mph - N/A   Mostly Cloudy
6:53 PM 69.1 °F 54.0 °F 58% 29.77 in 10.0 mi NW 10.4 mph 19.6 mph N/A   Mostly Cloudy
7:53 PM 64.0 °F 51.1 °F 63% 29.82 in 10.0 mi WNW 8.1 mph - N/A   Partly Cloudy
8:53 PM 60.1 °F 50.0 °F 69% 29.87 in 10.0 mi WNW 4.6 mph - N/A   Clear
9:53 PM 57.9 °F 50.0 °F 75% 29.90 in 10.0 mi West 3.5 mph - N/A   Clear
10:53 PM 55.9 °F 50.0 °F 80% 29.91 in 10.0 mi NNW 3.5 mph - N/A   Clear
11:53 PM 54.0 °F 48.9 °F 83% 29.94 in 10.0 mi NW 3.5 mph - N/A   Clear